1483290000.77,5865,11.63,73392.5,-5.17,-40.21,-40.41,0,*6B
1483290002.0,5866,11.63,73392.0,-5.17,-40.15,-40.59,0,*66
1483290003.22,5867,11.63,73390.3,-5.17,-40.15,-40.53,0,*6D
1483290004.49,5868,11.63,73390.0,-5.19,-40.21,-40.59,0,*61
1483290005.78,5869,11.63,73390.3,-5.19,-40.09,-40.41,0,*63
1483290007.06,5870,11.63,73394.3,-5.19,-40.09,-40.41,0,*6B
1483290008.32,5871,11.63,73388.3,-5.19,-39.85,-40.21,0,*66
1483290009.55,5872,11.63,73388.0,-5.21,-39.91,-40.29,0,*63
1483290010.78,5873,11.63,73386.8,-5.19,-40.03,-40.47,0,*64
1483290012.01,5874,11.63,73390.8,-5.21,-40.09,-40.47,0,*62
1483290013.25,5875,11.63,73390.5,-5.21,-39.85,-40.21,0,*69
1483290014.47,5876,11.63,73392.3,-5.21,-39.09,-39.53,0,*65
1483290015.72,5877,11.63,73380.0,-5.21,-38.91,-39.29,0,*69
1483290016.95,5878,11.63,73376.5,-5.21,-38.85,-39.23,0,*69
1483290018.16,5879,11.56,73374.5,-5.21,-38.73,-39.09,0,*69
1483290019.43,5880,11.63,73376.3,-5.19,-38.91,-39.41,0,*64
1483290020.66,5881,11.63,73380.5,-5.19,-39.47,-39.85,0,*67
1483290021.94,5882,11.63,73390.8,-5.19,-39.71,-40.09,0,*6B
1483290023.2,5883,11.63,73388.0,-5.19,-39.85,-40.21,0,*6B
1483290024.48,5884,11.63,73390.3,-5.19,-39.71,-40.21,0,*67
1483290025.72,5885,11.63,73388.8,-5.21,-39.91,-40.29,0,*6B
1483290026.95,5886,11.63,73390.8,-5.21,-40.03,-40.21,0,*65
1483290028.21,5887,11.63,73388.5,-5.19,-39.91,-40.21,0,*6A
1483290029.44,5888,11.63,73390.5,-5.21,-39.71,-40.03,0,*60
1483290030.7,5889,11.63,73394.5,-5.21,-39.71,-40.09,0,*6B
1483290031.94,5890,11.63,73390.8,-5.21,-39.91,-40.29,0,*6F
1483290033.16,5891,11.56,73390.0,-5.21,-39.53,-39.85,0,*68
1483290034.41,5892,11.63,73386.3,-5.25,-39.29,-39.71,0,*69
1483290035.65,5893,11.63,73384.3,-5.25,-39.47,-39.79,0,*68
1483290036.88,5894,11.63,73390.3,-5.21,-39.91,-40.29,0,*6B
1483290038.11,5895,11.63,73384.5,-5.21,-39.71,-40.03,0,*6C
1483290039.34,5896,11.63,73390.0,-5.21,-39.53,-39.91,0,*6A
1483290040.57,5897,11.56,73386.3,-5.21,-39.53,-39.91,0,*6B
1483290041.8,5898,11.63,73390.3,-5.21,-39.53,-39.85,0,*61
1483290043.03,5899,11.63,73388.8,-5.21,-39.47,-39.71,0,*6E
1483290044.26,5900,11.63,73386.5,-5.25,-39.47,-39.71,0,*6B
1483290045.49,5901,11.63,73382.0,-5.25,-39.09,-39.53,0,*60
1483290046.73,5902,11.63,73386.5,-5.25,-39.47,-39.79,0,*61
1483290047.99,5903,11.63,73394.3,-5.25,-39.59,-40.09,0,*66
1483290049.22,5904,11.63,73392.5,-5.25,-39.35,-39.79,0,*62
1483290050.49,5905,11.63,73386.3,-5.25,-39.15,-39.71,0,*69
1483290051.75,5906,11.63,73384.8,-5.25,-39.71,-39.97,0,*60
1483290052.98,5907,11.63,73382.0,-5.25,-39.35,-39.79,0,*61
1483290054.24,5908,11.63,73388.0,-5.25,-39.59,-40.09,0,*6D
1483290055.53,5909,11.63,73392.5,-5.27,-39.79,-40.09,0,*6C
1483290056.77,5910,11.63,73392.5,-5.25,-39.79,-40.35,0,*69
1483290057.98,5911,11.56,73390.5,-5.25,-40.15,-40.47,0,*69
1483290059.25,5912,11.63,73384.3,-5.25,-39.71,-40.09,0,*6C
1483290060.51,5913,11.63,73388.3,-5.25,-39.59,-39.97,0,*6E
1483290061.75,5914,11.63,73394.3,-5.25,-39.79,-40.15,0,*6F
1483290062.98,5915,11.63,73390.5,-5.25,-39.35,-39.71,0,*6A
1483290064.22,5916,11.63,73386.5,-5.25,-39.09,-39.59,0,*6C
1483290065.42,5917,11.63,73384.8,-5.25,-39.09,-39.35,0,*67
1483290066.68,5918,11.63,73386.5,-5.25,-39.15,-39.71,0,*65
1483290067.94,5919,11.63,73382.8,-5.25,-39.15,-39.79,0,*6C
1483290069.18,5920,11.63,73382.5,-5.25,-39.35,-39.79,0,*64
1483290070.44,5921,11.63,73392.0,-5.25,-39.59,-39.97,0,*6F
1483290071.7,5922,11.63,73396.3,-5.25,-39.71,-40.09,0,*6F
1483290072.94,5923,11.63,73392.0,-5.25,-39.91,-40.29,0,*62
1483290074.18,5924,11.63,73386.0,-5.27,-40.15,-40.53,0,*68
1483290075.46,5925,11.63,73384.5,-5.27,-39.59,-39.97,0,*69
1483290076.73,5926,11.63,73384.8,-5.25,-39.59,-40.09,0,*61
1483290077.96,5927,11.63,73386.3,-5.25,-39.53,-39.91,0,*65
1483290079.19,5928,11.63,73386.3,-5.27,-39.91,-40.15,0,*64
1483290080.4,5929,11.63,73386.3,-5.25,-39.91,-40.35,0,*65
1483290081.66,5930,11.63,73388.3,-5.27,-40.09,-40.53,0,*60
1483290082.89,5931,11.63,73388.8,-5.27,-39.91,-40.35,0,*6E
1483290084.12,5932,11.63,73388.0,-5.27,-39.91,-40.35,0,*6D
1483290085.38,5933,11.63,73394.5,-5.27,-40.09,-40.53,0,*63
1483290086.61,5934,11.63,73390.8,-5.29,-40.21,-40.53,0,*60
1483290087.83,5935,11.56,73386.8,-5.29,-40.15,-40.35,0,*66
1483290089.06,5936,11.63,73390.8,-5.29,-39.97,-40.35,0,*61
1483290090.29,5937,11.63,73396.8,-5.29,-40.03,-40.41,0,*60
1483290091.56,5938,11.63,73394.5,-5.29,-39.59,-39.97,0,*6B
1483290092.8,5939,11.63,73394.0,-5.29,-39.65,-39.97,0,*65
1483290094.0,5940,11.63,73390.8,-5.29,-39.65,-40.03,0,*68
1483290095.22,5941,11.63,73394.3,-5.29,-39.85,-40.35,0,*62
1483290096.43,5942,11.63,73396.8,-5.29,-40.03,-40.53,0,*61
1483290097.7,5943,11.63,73392.8,-5.31,-40.21,-40.59,0,*63
1483290098.94,5944,11.63,73392.5,-5.31,-40.15,-40.73,0,*6B
1483290100.19,5945,11.56,73388.5,-5.29,-40.15,-40.59,0,*6B
1483290101.45,5946,11.63,73390.5,-5.31,-40.03,-40.59,0,*66
1483290102.73,5947,11.56,73390.8,-5.31,-39.97,-40.41,0,*6D
1483290104.0,5948,11.63,73390.5,-5.31,-39.79,-40.03,0,*64
1483290105.26,5949,11.63,73390.5,-5.31,-39.85,-40.41,0,*60
1483290106.55,5950,11.56,73384.8,-5.31,-39.79,-40.21,0,*6D
1483290107.79,5951,11.63,73390.8,-5.31,-39.85,-40.35,0,*6A
1483290109.04,5952,11.63,73392.8,-5.33,-39.85,-40.29,0,*66
1483290110.29,5953,11.63,73392.5,-5.33,-39.91,-40.21,0,*6A
1483290111.54,5954,11.63,73388.8,-5.33,-39.71,-40.03,0,*63
1483290112.8,5955,11.63,73390.5,-5.33,-39.91,-40.29,0,*64
1483290114.05,5956,11.63,73394.5,-5.33,-39.91,-40.29,0,*67
1483290115.31,5957,11.63,73388.8,-5.33,-39.91,-40.41,0,*68
1483290116.56,5958,11.63,73390.8,-5.33,-40.09,-40.47,0,*6E
1483290117.82,5959,11.56,73384.5,-5.33,-39.85,-40.09,0,*6F
1483290119.1,5960,11.63,73394.5,-5.33,-39.71,-40.09,0,*6E
1483290120.32,5961,11.63,73390.8,-5.35,-39.71,-40.03,0,*63
1483290121.55,5962,11.63,73388.3,-5.35,-39.59,-39.85,0,*6A
1483290122.8,5963,11.63,73388.0,-5.33,-39.29,-39.65,0,*64
1483290124.03,5964,11.63,73386.5,-5.35,-39.41,-39.65,0,*6B
1483290125.26,5965,11.56,73386.3,-5.33,-39.47,-39.85,0,*64
1483290126.48,5966,11.56,73380.0,-5.33,-39.47,-39.91,0,*62
1483290127.7,5967,11.63,73386.3,-5.35,-39.29,-39.85,0,*68
1483290128.98,5968,11.63,73384.5,-5.33,-39.29,-39.59,0,*60
1483290130.24,5969,11.56,73386.0,-5.33,-39.59,-39.91,0,*62
1483290131.5,5970,11.56,73386.0,-5.31,-39.41,-39.65,0,*6A
1483290132.73,5971,11.56,73382.8,-5.31,-39.35,-39.65,0,*68
1483290134.01,5972,11.63,73386.3,-5.31,-39.15,-39.53,0,*6C
1483290135.24,5973,11.63,73386.0,-5.29,-39.41,-39.85,0,*6E
1483290136.5,5974,11.56,73384.3,-5.31,-39.53,-39.85,0,*63
1483290137.79,5975,11.63,73384.0,-5.31,-39.59,-39.97,0,*6B
1483290139.07,5976,11.63,73386.8,-5.31,-39.59,-39.97,0,*68
1483290140.34,5977,11.56,73382.8,-5.31,-39.79,-40.15,0,*6F
1483290141.63,5978,11.63,73386.3,-5.31,-39.79,-40.21,0,*67
1483290142.92,5979,11.63,73384.3,-5.31,-39.59,-39.97,0,*67
1483290144.17,5980,11.63,73384.8,-5.31,-39.53,-40.03,0,*68
1483290145.41,5981,11.63,73384.3,-5.31,-39.65,-40.15,0,*6B
1483290146.66,5982,11.63,73388.3,-5.31,-39.53,-39.85,0,*6A
1483290147.92,5983,11.56,73394.8,-5.31,-39.41,-39.85,0,*68
1483290149.18,5984,11.63,73392.8,-5.29,-39.23,-39.59,0,*63
1483290150.46,5985,11.63,73388.8,-5.31,-39.03,-39.59,0,*69
1483290151.72,5986,11.63,73386.5,-5.29,-39.15,-39.53,0,*6E
1483290152.95,5987,11.63,73380.8,-5.31,-39.35,-39.65,0,*61
1483290154.18,5988,11.56,73376.8,-5.29,-39.53,-39.85,0,*69
1483290155.46,5989,11.63,73382.3,-5.31,-39.03,-39.41,0,*6C
1483290156.74,5990,11.63,73380.0,-5.31,-39.15,-39.53,0,*60
1483290158.0,5991,11.63,73376.5,-5.29,-39.03,-39.59,0,*65
1483290159.25,5992,11.63,73378.8,-5.29,-39.03,-39.41,0,*6F
1483290160.48,5993,11.63,73372.3,-5.29,-39.03,-39.35,0,*6D
1483290161.74,5994,11.63,73372.5,-5.29,-39.23,-39.59,0,*62
1483290162.97,5995,11.63,73376.0,-5.29,-39.35,-39.59,0,*64
1483290164.23,5996,11.63,73380.8,-5.27,-39.47,-39.79,0,*6E
1483290165.52,5997,11.63,73386.0,-5.27,-39.59,-40.09,0,*69
1483290166.78,5998,11.56,73382.8,-5.27,-39.91,-40.09,0,*62
1483290168.03,5999,11.63,73384.5,-5.27,-39.97,-40.35,0,*6A
1483290169.25,6000,11.63,73386.5,-5.29,-40.15,-40.35,0,*6A
1483290170.51,6001,11.63,73388.3,-5.31,-40.03,-40.41,0,*66
1483290171.72,6002,11.63,73386.0,-5.29,-40.15,-40.35,0,*68
1483290172.97,6003,11.63,73392.8,-5.29,-40.15,-40.59,0,*63
1483290174.18,6004,11.56,73396.3,-5.29,-40.15,-40.35,0,*6E
1483290175.44,6005,11.63,73396.3,-5.31,-39.59,-39.85,0,*65
1483290176.68,6006,11.56,73390.8,-5.31,-39.35,-39.65,0,*62
1483290177.94,6007,11.56,73390.5,-5.31,-39.35,-39.79,0,*6E
1483290179.2,6008,11.63,73388.8,-5.29,-39.59,-39.97,0,*62
1483290180.47,6009,11.63,73390.8,-5.31,-39.59,-40.03,0,*69
1483290181.75,6010,11.63,73388.8,-5.31,-39.59,-39.97,0,*62
1483290183.02,6011,11.63,73388.5,-5.31,-39.79,-40.03,0,*62
1483290184.23,6012,11.63,73388.3,-5.29,-39.85,-40.35,0,*6E
1483290185.52,6013,11.63,73388.3,-5.31,-39.79,-39.97,0,*63
1483290186.78,6014,11.56,73386.3,-5.31,-39.85,-40.21,0,*64
1483290188.05,6015,11.63,73390.3,-5.29,-39.79,-40.21,0,*6F
1483290189.31,6016,11.63,73394.3,-5.31,-40.15,-40.59,0,*6E
1483290190.59,6017,11.63,73390.8,-5.31,-40.21,-40.59,0,*68
1483290191.88,6018,11.63,73388.0,-5.31,-39.97,-40.41,0,*6D
1483290193.16,6019,11.63,73384.3,-5.33,-40.09,-40.59,0,*6E
1483290194.4,6020,11.63,73384.0,-5.35,-40.21,-40.59,0,*68
1483290195.62,6021,11.63,73386.8,-5.35,-40.29,-40.47,0,*6E
1483290196.88,6022,11.56,73390.0,-5.33,-40.03,-40.41,0,*65
1483290198.09,6023,11.63,73394.5,-5.35,-40.21,-40.47,0,*64
1483290199.33,6024,11.63,73394.3,-5.33,-40.29,-40.65,0,*6D
1483290200.61,6025,11.63,73396.0,-5.33,-40.29,-40.59,0,*63
1483290201.85,6026,11.63,73392.3,-5.35,-40.21,-40.59,0,*6E
1483290203.08,6027,11.63,73394.3,-5.35,-39.91,-40.21,0,*65
1483290204.31,6028,11.63,73396.5,-5.35,-39.91,-40.29,0,*62
1483290205.54,6029,11.63,73396.5,-5.35,-40.03,-40.29,0,*66
1483290206.76,6030,11.63,73402.3,-5.35,-40.09,-40.47,0,*6C
1483290207.98,6031,11.63,73396.8,-5.35,-40.21,-40.47,0,*67
1483290209.18,6032,11.63,73398.8,-5.39,-40.35,-40.65,0,*6D
1483290210.4,6033,11.63,73392.8,-5.39,-40.29,-40.65,0,*61
1483290211.62,6034,11.63,73394.5,-5.39,-40.09,-40.47,0,*64
1483290212.85,6035,11.63,73396.8,-5.39,-40.09,-40.47,0,*65
1483290214.13,6036,11.63,73396.0,-5.41,-40.21,-40.59,0,*6C
1483290215.34,6037,11.56,73392.8,-5.39,-40.15,-40.65,0,*6A
1483290216.59,6038,11.56,73390.8,-5.41,-40.21,-40.73,0,*6A
1483290217.82,6039,11.63,73398.0,-5.41,-40.35,-40.73,0,*6E
1483290219.1,6040,11.56,73392.3,-5.41,-40.41,-40.79,0,*69
1483290220.35,6041,11.63,73398.0,-5.41,-40.53,-40.97,0,*6B
1483290221.55,6042,11.56,73398.3,-5.43,-40.53,-40.91,0,*6C
1483290222.81,6043,11.56,73398.0,-5.45,-40.47,-40.85,0,*6B
1483290224.07,6044,11.56,73394.5,-5.45,-40.47,-40.85,0,*6C
1483290225.3,6045,11.63,73400.0,-5.43,-40.35,-40.59,0,*6F
1483290226.55,6046,11.63,73402.8,-5.45,-40.29,-40.65,0,*68
1483290227.77,6047,11.63,73402.8,-5.43,-40.15,-40.53,0,*65
1483290228.99,6048,11.63,73402.3,-5.43,-40.21,-40.53,0,*6D
1483290230.25,6049,11.63,73404.3,-5.45,-40.41,-40.65,0,*69
1483290231.5,6050,11.56,73396.3,-5.43,-40.21,-40.59,0,*6E
1483290232.75,6051,11.63,73400.0,-5.45,-40.29,-40.65,0,*6E
1483290234.03,6052,11.63,73398.5,-5.45,-40.41,-40.79,0,*6E
1483290235.28,6053,11.63,73398.3,-5.45,-40.29,-40.65,0,*6C
1483290236.56,6054,11.63,73398.5,-5.45,-40.21,-40.59,0,*6C
1483290237.84,6055,11.56,73396.3,-5.45,-40.29,-40.59,0,*65
1483290239.09,6056,11.63,73400.8,-5.45,-39.85,-40.29,0,*69
1483290240.35,6057,11.63,73394.5,-5.45,-39.23,-39.65,0,*62
1483290241.61,6058,11.63,73398.8,-5.45,-39.41,-39.65,0,*69
1483290242.89,6059,11.63,73392.8,-5.45,-39.41,-39.79,0,*65
1483290244.13,6060,11.63,73396.8,-5.45,-39.47,-39.91,0,*6F
1483290245.36,6061,11.56,73392.8,-5.45,-39.47,-39.85,0,*6B
1483290246.61,6062,11.63,73392.3,-5.45,-39.29,-39.85,0,*60
1483290247.87,6063,11.56,73386.8,-5.45,-39.65,-40.09,0,*63
1483290249.13,6064,11.56,73384.3,-5.45,-39.91,-40.29,0,*6D
1483290250.39,6065,11.56,73378.8,-5.45,-40.03,-40.41,0,*67
1483290251.65,6066,11.56,73376.8,-5.45,-39.91,-40.21,0,*67
1483290252.91,6067,11.63,73380.3,-5.45,-39.91,-40.29,0,*6E
1483290254.17,6068,11.63,73382.3,-5.45,-40.03,-40.41,0,*6A
1483290255.42,6069,11.56,73380.0,-5.45,-40.21,-40.47,0,*6D
1483290256.67,6070,11.56,73380.8,-5.45,-40.03,-40.21,0,*65
1483290257.95,6071,11.63,73386.8,-5.49,-40.09,-40.29,0,*6A
1483290259.21,6072,11.63,73390.0,-5.45,-39.85,-40.09,0,*6D
1483290260.48,6073,11.56,73384.5,-5.45,-39.59,-40.03,0,*67
1483290261.73,6074,11.63,73384.0,-5.45,-39.29,-39.65,0,*69
1483290262.99,6075,11.63,73384.8,-5.45,-39.59,-39.85,0,*61
1483290264.23,6076,11.56,73376.8,-5.45,-39.65,-39.91,0,*68
1483290265.49,6077,11.56,73380.8,-5.45,-39.59,-40.03,0,*63
1483290266.72,6078,11.63,73380.0,-5.45,-39.47,-39.85,0,*63
1483290267.95,6079,11.56,73384.8,-5.45,-39.47,-39.85,0,*62
1483290269.17,6080,11.56,73382.0,-5.43,-39.53,-39.85,0,*67
1483290270.43,6081,11.56,73382.8,-5.45,-39.85,-40.29,0,*63
1483290271.69,6082,11.63,73390.8,-5.45,-40.03,-40.41,0,*6E
1483290272.94,6083,11.63,73384.8,-5.49,-39.97,-40.47,0,*66
1483290274.17,6084,11.63,73386.5,-5.45,-40.03,-40.47,0,*6E
1483290275.43,6085,11.56,73380.8,-5.45,-39.79,-40.03,0,*6C
1483290276.69,6086,11.63,73380.5,-5.49,-39.65,-40.09,0,*64
1483290277.95,6087,11.63,73384.0,-5.45,-39.91,-40.29,0,*60
1483290279.2,6088,11.56,73380.8,-5.45,-40.09,-40.47,0,*68
1483290280.48,6089,11.63,73384.0,-5.49,-39.97,-40.29,0,*64
1483290281.73,6090,11.63,73384.0,-5.49,-39.53,-39.91,0,*69
1483290282.95,6091,11.56,73382.3,-5.49,-39.09,-39.35,0,*69
1483290284.21,6092,11.63,73372.8,-5.45,-38.61,-38.91,0,*66
1483290285.46,6093,11.56,73366.3,-5.45,-38.73,-39.03,0,*6E
1483290286.72,6094,11.63,73378.0,-5.45,-38.49,-38.85,0,*6F
1483290287.98,6095,11.63,73378.8,-5.45,-38.67,-39.09,0,*67
1483290289.23,6096,11.63,73364.5,-5.45,-38.49,-38.73,0,*64
1483290290.45,6097,11.63,73378.0,-5.45,-38.43,-38.73,0,*6F
1483290291.68,6098,11.63,73378.8,-5.43,-38.43,-38.79,0,*6C
1483290292.89,6099,11.63,73378.5,-5.43,-38.55,-38.85,0,*69
1483290294.09,6100,11.56,73374.8,-5.43,-38.61,-38.85,0,*6F
1483290295.32,6101,11.63,73374.5,-5.41,-38.55,-38.85,0,*6B
1483290296.58,6102,11.63,73368.8,-5.41,-38.35,-38.67,0,*62
1483290297.77,6103,11.56,73372.3,-5.39,-38.35,-38.73,0,*69
1483290299.02,6104,11.56,73374.3,-5.41,-38.43,-38.67,0,*65
1483290300.25,6105,11.56,73366.3,-5.39,-38.29,-38.61,0,*61
1483290301.47,6106,11.63,73366.8,-5.39,-38.29,-38.73,0,*61
1483290302.7,6107,11.63,73366.8,-5.39,-38.55,-38.79,0,*61
1483290303.94,6108,11.63,73374.5,-5.33,-38.49,-38.73,0,*63
1483290305.16,6109,11.56,73368.5,-5.33,-38.43,-38.73,0,*68
1483290306.39,6110,11.63,73368.0,-5.35,-38.49,-38.73,0,*6C
1483290307.61,6111,11.63,73372.8,-5.33,-38.73,-39.09,0,*6E
1483290308.88,6112,11.56,73374.3,-5.33,-38.91,-39.23,0,*69
1483290310.13,6113,11.63,73368.3,-5.33,-39.03,-39.09,0,*6A
1483290311.39,6114,11.56,73368.3,-5.31,-38.79,-38.97,0,*65
1483290312.67,6115,11.63,73382.0,-5.31,-38.79,-39.03,0,*68
1483290313.91,6116,11.63,73384.5,-5.31,-39.03,-39.35,0,*62
1483290315.17,6117,11.56,73372.8,-5.31,-38.85,-39.23,0,*6B
1483290316.42,6118,11.56,73382.0,-5.29,-39.03,-39.41,0,*66
1483290317.67,6119,11.63,73380.5,-5.31,-39.03,-39.35,0,*6D
1483290318.93,6120,11.63,73378.3,-5.31,-39.15,-39.35,0,*60
1483290320.19,6121,11.63,73380.5,-5.29,-39.15,-39.53,0,*68
1483290321.42,6122,11.63,73380.5,-5.31,-39.35,-39.65,0,*65
1483290322.7,6123,11.63,73386.8,-5.31,-39.53,-39.97,0,*69
1483290323.96,6124,11.63,73384.8,-5.31,-39.65,-39.97,0,*6B
1483290325.2,6125,11.63,73384.0,-5.29,-39.79,-40.15,0,*6A
1483290326.48,6126,11.63,73386.5,-5.33,-40.09,-40.29,0,*64
1483290327.74,6127,11.63,73386.3,-5.31,-40.03,-40.41,0,*63
1483290328.99,6128,11.63,73384.5,-5.33,-40.09,-40.47,0,*62
1483290330.22,6129,11.63,73384.8,-5.35,-40.03,-40.41,0,*69
1483290331.44,6130,11.63,73390.3,-5.33,-39.65,-40.03,0,*6F
1483290332.7,6131,11.63,73388.3,-5.33,-39.85,-40.09,0,*6A
1483290333.96,6132,11.56,73384.3,-5.35,-39.71,-40.09,0,*64
1483290335.21,6133,11.63,73388.3,-5.33,-39.85,-40.21,0,*62
1483290336.41,6134,11.63,73380.0,-5.35,-39.65,-39.91,0,*68
1483290337.64,6135,11.56,73376.5,-5.35,-39.41,-39.65,0,*64
1483290338.87,6136,11.63,73382.0,-5.35,-39.41,-39.85,0,*69
1483290340.07,6137,11.56,73382.5,-5.35,-39.47,-39.85,0,*6E
1483290341.29,6138,11.63,73378.5,-5.39,-39.35,-39.71,0,*63
1483290342.52,6139,11.63,73378.0,-5.39,-39.47,-39.79,0,*6F
1483290343.77,6140,11.63,73382.3,-5.35,-39.41,-39.71,0,*63
1483290345.0,6141,11.63,73386.5,-5.35,-39.47,-39.71,0,*64
1483290346.23,6142,11.56,73386.3,-5.35,-39.59,-39.85,0,*63
1483290347.43,6143,11.63,73384.8,-5.35,-39.65,-39.91,0,*68
1483290348.63,6144,11.63,73386.0,-5.35,-39.47,-39.85,0,*6A
1483290349.86,6145,11.63,73382.8,-5.35,-39.41,-39.85,0,*6D
1483290351.08,6146,11.63,73382.3,-5.35,-39.29,-39.65,0,*6E
1483290352.33,6147,11.56,73382.8,-5.35,-39.41,-39.71,0,*64
1483290353.54,6148,11.63,73386.8,-5.35,-39.65,-39.91,0,*63
1483290354.76,6149,11.63,73380.3,-5.35,-39.71,-40.03,0,*62
1483290355.97,6150,11.63,73382.0,-5.35,-39.65,-40.03,0,*6F
1483290357.17,6151,11.56,73384.3,-5.35,-39.65,-39.85,0,*6E
1483290358.41,6152,11.63,73384.0,-5.39,-39.29,-39.53,0,*62
1483290359.63,6153,11.63,73378.8,-5.39,-38.97,-39.29,0,*6A
1483290360.86,6154,11.63,73374.5,-5.39,-38.79,-39.09,0,*6F
1483290362.08,6155,11.56,73370.5,-5.39,-38.73,-38.91,0,*64
1483290363.32,6156,11.63,73382.3,-5.39,-38.91,-39.29,0,*69
1483290364.55,6157,11.63,73382.5,-5.39,-39.09,-39.29,0,*68
1483290365.83,6158,11.63,73378.5,-5.33,-39.23,-39.59,0,*62
1483290367.05,6159,11.63,73386.5,-5.35,-39.09,-39.41,0,*64
1483290368.33,6160,11.56,73384.8,-5.33,-39.23,-39.59,0,*69
1483290369.58,6161,11.63,73384.0,-5.35,-39.23,-39.59,0,*6E
1483290370.8,6162,11.63,73386.3,-5.35,-39.29,-39.65,0,*68
1483290372.05,6163,11.63,73390.3,-5.33,-39.41,-39.85,0,*6F
1483290373.27,6164,11.56,73382.8,-5.35,-39.23,-39.47,0,*64
1483290374.52,6165,11.63,73388.5,-5.35,-39.23,-39.59,0,*6A
1483290375.77,6166,11.63,73388.8,-5.33,-39.29,-39.65,0,*6A
1483290377.0,6167,11.56,73386.8,-5.35,-39.59,-39.91,0,*61
1483290378.2,6168,11.63,73384.8,-5.35,-39.47,-39.85,0,*64
1483290379.44,6169,11.63,73382.8,-5.35,-39.59,-39.91,0,*6F
1483290380.68,6170,11.63,73384.3,-5.33,-39.23,-39.47,0,*67
1483290381.92,6171,11.63,73380.0,-5.33,-38.73,-39.03,0,*62
1483290383.17,6172,11.63,73382.8,-5.35,-38.67,-38.91,0,*68
1483290384.36,6173,11.63,73376.0,-5.35,-38.55,-38.73,0,*64
1483290385.61,6174,11.56,73382.8,-5.33,-38.91,-39.09,0,*61
1483290386.88,6175,11.63,73382.8,-5.33,-38.91,-39.23,0,*68
1483290388.08,6176,11.63,73382.8,-5.35,-38.55,-38.85,0,*68
1483290389.3,6177,11.56,73378.0,-5.33,-38.43,-38.73,0,*61
1483290390.55,6178,11.56,73382.0,-5.33,-38.49,-38.85,0,*6D
1483290391.79,6179,11.63,73382.5,-5.31,-38.61,-38.97,0,*67
1483290393.07,6180,11.56,73384.0,-5.31,-38.49,-38.79,0,*6B
1483290394.31,6181,11.56,73380.5,-5.31,-38.61,-38.85,0,*63
1483290395.54,6182,11.63,73382.8,-5.29,-38.35,-38.67,0,*64
1483290396.77,6183,11.63,73388.0,-5.29,-38.43,-38.67,0,*64
1483290397.98,6184,11.63,73382.0,-5.29,-38.61,-38.85,0,*6F
1483290399.24,6185,11.63,73390.5,-5.29,-38.49,-38.67,0,*68
1483290400.51,6186,11.63,73382.8,-5.29,-38.49,-38.67,0,*6B
1483290401.76,6187,11.63,73378.3,-5.27,-38.61,-38.91,0,*67
1483290403.01,6188,11.56,73374.8,-5.27,-38.55,-38.79,0,*69
1483290404.22,6189,11.63,73382.5,-5.25,-38.55,-38.61,0,*63
1483290405.47,6190,11.63,73386.5,-5.25,-38.91,-39.29,0,*6E
1483290406.69,6191,11.63,73386.0,-5.27,-38.97,-39.35,0,*66
1483290407.92,6192,11.63,73388.5,-5.25,-39.15,-39.47,0,*69
1483290409.15,6193,11.63,73386.0,-5.25,-39.35,-39.59,0,*65
1483290410.38,6194,11.63,73384.8,-5.25,-39.47,-39.53,0,*6D
1483290411.63,6195,11.63,73382.8,-5.25,-39.53,-39.79,0,*61
1483290412.86,6196,11.63,73384.8,-5.27,-39.09,-39.47,0,*62
1483290414.08,6197,11.63,73382.5,-5.27,-39.09,-39.47,0,*63
1483290415.34,6198,11.63,73376.0,-5.27,-38.79,-39.09,0,*60
1483290416.62,6199,11.63,73376.0,-5.27,-38.79,-38.91,0,*61
1483290417.87,6200,11.56,73374.5,-5.27,-38.97,-39.15,0,*6F
1483290419.12,6201,11.63,73378.0,-5.27,-39.09,-39.29,0,*67
1483290420.38,6202,11.63,73378.0,-5.27,-38.79,-39.09,0,*60
1483290421.58,6203,11.63,73380.8,-5.25,-38.73,-38.97,0,*6F
1483290422.79,6204,11.63,73372.8,-5.25,-38.61,-39.09,0,*6D
1483290424.03,6205,11.56,73366.0,-5.25,-38.79,-39.09,0,*65
1483290425.25,6206,11.63,73370.0,-5.25,-38.97,-39.29,0,*64
1483290426.47,6207,11.63,73372.5,-5.25,-38.97,-39.29,0,*65
1483290427.7,6208,11.63,73376.5,-5.25,-38.61,-38.91,0,*61
1483290428.94,6209,11.63,73380.3,-5.25,-39.09,-39.15,0,*62
1483290430.17,6210,11.56,73368.5,-5.25,-38.79,-38.97,0,*67
1483290431.42,6211,11.56,73368.0,-5.21,-38.91,-39.23,0,*6A
1483290432.67,6212,11.63,73378.0,-5.21,-38.91,-39.23,0,*69
1483290433.92,6213,11.56,73380.0,-5.21,-38.91,-39.23,0,*68
1483290435.15,6214,11.63,73386.0,-5.21,-39.09,-39.53,0,*68
1483290436.4,6215,11.63,73380.8,-5.21,-39.03,-39.29,0,*6E
1483290437.65,6216,11.63,73380.5,-5.21,-39.03,-39.23,0,*67
1483290438.87,6217,11.56,73382.0,-5.21,-38.73,-39.03,0,*62
1483290440.12,6218,11.63,73384.3,-5.21,-39.23,-39.41,0,*6F
1483290441.35,6219,11.63,73382.0,-5.21,-38.73,-38.91,0,*66
1483290442.58,6220,11.63,73370.5,-5.21,-38.49,-38.73,0,*69
1483290443.79,6221,11.63,73376.5,-5.21,-38.85,-39.09,0,*64
1483290445.06,6222,11.63,73384.8,-5.19,-38.91,-39.41,0,*65
1483290446.29,6223,11.63,73384.0,-5.21,-38.73,-39.03,0,*65
1483290447.51,6224,11.63,73384.5,-5.21,-38.73,-39.03,0,*62
1483290448.76,6225,11.63,73380.8,-5.19,-38.67,-38.85,0,*62
1483290449.99,6226,11.56,73372.0,-5.21,-38.49,-38.73,0,*6F
1483290451.21,6227,11.63,73382.5,-5.19,-38.73,-39.09,0,*60
1483290452.49,6228,11.63,73390.5,-5.19,-38.67,-38.91,0,*6A
1483290453.72,6229,11.63,73386.0,-5.21,-38.67,-38.85,0,*65
1483290454.95,6230,11.63,73382.5,-5.21,-38.49,-38.85,0,*61
1483290456.21,6231,11.63,73368.3,-5.17,-38.29,-38.67,0,*6F
1483290457.43,6232,11.56,73360.8,-5.17,-38.23,-38.61,0,*60
1483290458.68,6233,11.63,73374.5,-5.17,-38.29,-38.67,0,*6D
1483290459.89,6234,11.63,73370.5,-5.13,-38.43,-38.61,0,*64
1483290461.11,6235,11.63,73376.0,-5.17,-38.67,-38.97,0,*6E
1483290462.3,6236,11.63,73378.5,-5.13,-38.35,-38.73,0,*64
1483290463.5,6237,11.63,73376.5,-5.17,-38.43,-38.73,0,*60
1483290464.7,6238,11.63,73376.0,-5.13,-38.35,-38.55,0,*6E
1483290465.9,6239,11.56,73368.3,-5.13,-38.35,-38.61,0,*68
1483290467.09,6240,11.56,73372.3,-5.13,-38.55,-38.73,0,*63
1483290468.34,6241,11.56,73372.0,-5.11,-38.23,-38.73,0,*61
1483290469.59,6242,11.63,73376.0,-5.11,-38.55,-38.91,0,*6F
1483290470.81,6243,11.63,73380.5,-5.09,-38.49,-38.73,0,*66
1483290472.04,6244,11.63,73384.0,-5.09,-38.49,-38.73,0,*61
1483290473.29,6245,11.56,73376.5,-5.11,-38.55,-38.79,0,*6E
1483290474.48,6246,11.56,73376.8,-5.09,-38.35,-38.73,0,*68
1483290475.71,6247,11.56,73370.3,-5.09,-38.29,-38.55,0,*60
1483290476.94,6248,11.63,73378.5,-5.09,-38.17,-38.49,0,*6F
1483290478.16,6249,11.63,73378.5,-5.11,-38.35,-38.61,0,*6D
1483290479.39,6250,11.63,73384.0,-5.09,-38.49,-38.73,0,*64
1483290480.64,6251,11.56,73380.0,-5.09,-38.67,-38.91,0,*65
1483290481.86,6252,11.63,73374.3,-5.09,-38.35,-38.67,0,*68
1483290483.12,6253,11.63,73376.3,-5.05,-38.29,-38.67,0,*68
1483290484.37,6254,11.63,73378.8,-5.05,-38.29,-38.49,0,*63
1483290485.61,6255,11.63,73380.3,-5.05,-38.29,-38.61,0,*68
1483290486.84,6256,11.63,73380.0,-5.05,-38.29,-38.61,0,*6B
1483290488.07,6257,11.63,73382.3,-5.05,-38.43,-38.79,0,*6F
1483290489.29,6258,11.63,73382.0,-5.05,-38.67,-38.97,0,*66
1483290490.52,6259,11.63,73376.0,-5.07,-38.61,-38.97,0,*63
1483290491.72,6260,11.56,73374.8,-5.05,-38.61,-38.97,0,*6B
1483290492.98,6261,11.63,73376.5,-5.05,-38.49,-38.67,0,*6F
1483290494.21,6262,11.63,73378.0,-5.05,-38.29,-38.61,0,*6C
1483290495.41,6263,11.63,73380.3,-5.05,-38.61,-38.97,0,*68
1483290496.64,6264,11.63,73382.0,-5.03,-38.35,-38.61,0,*61
1483290497.89,6265,11.63,73382.5,-5.03,-38.23,-38.55,0,*60
1483290499.11,6266,11.63,73380.0,-5.01,-38.23,-38.55,0,*61
1483290500.33,6267,11.63,73382.8,-5.03,-38.55,-38.73,0,*67
1483290501.54,6268,11.56,73372.5,-5.01,-38.23,-38.73,0,*6B
1483290502.79,6269,11.63,73378.0,-5.03,-38.23,-38.43,0,*6B
1483290504.01,6270,11.63,73380.8,-5.01,-38.73,-39.15,0,*66
1483290505.29,6271,11.63,73386.3,-5.03,-38.79,-39.23,0,*6A